Skagway, AK

4:19 AM AKST on November 18, 2017 (GMT -0900)
Skagway

Weather History for PAGY - January, 2014

Change the Weather History Date:

Saturday, January 4, 2014

  Actual Average Record
Temperature  
Mean Temperature 29 °F -  
Max Temperature 30 °F 28 °F 48 °F (2003)
Min Temperature 28 °F 20 °F -1 °F (1966)
Degree Days  
Heating Degree Days 36    
Moisture  
Dew Point 23 °F    
Average Humidity 77    
Maximum Humidity 89    
Minimum Humidity 66    
Precipitation  
Precipitation 0.02 in - - ()
Sea Level Pressure  
Sea Level Pressure 30.41 in    
Wind  
Wind Speed 5 mph (NE)    
Max Wind Speed 12 mph    
Max Gust Speed -    
Visibility 6 miles    
Events Snow    
Averages and records for this station are not official NWS values.
T = Trace of Precipitation, MM = Missing Value Source: NWS Daily Summary

Daily Weather History Graph

Daily Weather History Graph

Search for Another Location

Airport or City:

Trip Planner

Search our weather history database for the weather conditions in past years. The results will help you decide how hot, cold, wet, or windy it might be!

Date:

Astronomy

Jan. 04, 2014 Rise Set
Actual Time 8:56 AM AKST 3:16 PM AKST
Civil Twilight 8:02 AM AKST 4:10 PM AKST
Nautical Twilight 7:07 AM AKST 5:05 PM AKST
Astronomical Twilight 6:17 AM AKST 5:55 PM AKST
Moon 9:58 AM AKST (1/4) 9:00 PM AKST (1/4)
Length of Visible Light 8h 08m
Length of Day
6h 19m
Waxing Crescent, 16% of the Moon is Illuminated
Jan 4
Waxing Crescent
Jan 7
First Quarter
Jan 15
Full
Jan 23
Last Quarter
Jan 30
New

Hourly Weather History & Observations

Time (AKST) Temp. Windchill Dew Point Humidity Pressure Visibility Wind Dir Wind Speed Gust Speed Precip Events Conditions
12:26 AM 28.4 °F 24.6 °F 24.8 °F 86% 30.46 in 4.0 mi NE 3.5 mph - N/A   Overcast
12:53 AM 28.9 °F - 25.0 °F 85% 30.48 in 7.0 mi Calm Calm - N/A   Overcast
1:07 AM 28.4 °F 24.6 °F 24.8 °F 86% 30.47 in 8.0 mi NNE 3.5 mph - N/A   Overcast
1:15 AM 28.4 °F 24.6 °F 24.8 °F 86% 30.48 in 6.0 mi NE 3.5 mph - N/A   Overcast
1:32 AM 28.4 °F 24.6 °F 24.8 °F 86% 30.47 in 4.0 mi NNE 3.5 mph - 0.00 in Snow Light Snow
1:46 AM 28.4 °F 23.3 °F 24.8 °F 86% 30.48 in 5.0 mi NNE 4.6 mph - 0.00 in Snow Light Snow
1:53 AM 28.9 °F 25.2 °F 25.0 °F 85% 30.48 in 9.0 mi NNE 3.5 mph - 0.00 in   Overcast
2:14 AM 28.4 °F 24.6 °F 24.8 °F 86% 30.47 in 3.0 mi NE 3.5 mph - 0.00 in Snow Light Snow
3:53 AM 28.0 °F 22.8 °F 24.1 °F 85% 30.47 in 10.0 mi NE 4.6 mph - N/A   Scattered Clouds
4:53 AM 28.0 °F - 24.1 °F 85% 30.46 in 10.0 mi Calm Calm - N/A   Clear
5:53 AM 28.0 °F - 24.1 °F 85% 30.45 in 10.0 mi Calm Calm - N/A   Clear
6:53 AM 28.9 °F - 26.1 °F 89% 30.46 in 10.0 mi Calm Calm - N/A   Mostly Cloudy
7:53 AM 30.0 °F 22.4 °F 21.9 °F 72% 30.46 in 10.0 mi NNE 8.1 mph - N/A   Overcast
8:53 AM 30.0 °F 21.7 °F 21.0 °F 69% 30.46 in 10.0 mi NE 9.2 mph - N/A   Overcast
9:53 AM 30.0 °F 22.4 °F 19.9 °F 66% 30.45 in 10.0 mi NNE 8.1 mph - N/A   Overcast
10:53 AM 30.9 °F 23.5 °F 21.0 °F 67% 30.45 in 10.0 mi NNE 8.1 mph - N/A   Overcast
11:42 AM 30.2 °F 21.3 °F 21.2 °F 69% 30.45 in 8.0 mi NE 10.4 mph - 0.00 in Snow Light Snow
11:53 AM 30.0 °F 21.1 °F 21.0 °F 69% 30.45 in 5.0 mi NE 10.4 mph - 0.00 in Snow Light Snow
12:05 PM 30.2 °F 23.4 °F 21.2 °F 69% 30.44 in 3.0 mi NNE 6.9 mph - 0.00 in Snow Light Snow
12:18 PM 28.4 °F 20.4 °F 21.2 °F 74% 30.44 in 2.0 mi NE 8.1 mph - 0.00 in Snow Light Snow
12:29 PM 28.4 °F 18.5 °F 21.2 °F 74% 30.44 in 1.8 mi NE 11.5 mph - 0.00 in Snow Light Snow
12:49 PM 28.4 °F 18.5 °F 21.2 °F 74% 30.44 in 2.5 mi NE 11.5 mph - 0.00 in Snow Light Snow
12:53 PM 28.9 °F 21.1 °F 21.9 °F 75% 30.44 in 3.0 mi NE 8.1 mph - 0.00 in Snow Light Snow
1:14 PM 28.4 °F 18.5 °F 21.2 °F 74% 30.42 in 2.5 mi NNE 11.5 mph - 0.00 in Snow Light Snow
1:53 PM 28.9 °F 20.4 °F 21.0 °F 72% 30.42 in 3.0 mi NE 9.2 mph - 0.00 in Snow Light Snow
2:12 PM 28.4 °F 19.1 °F 21.2 °F 74% 30.42 in 2.0 mi NNE 10.4 mph - 0.00 in Snow Light Snow
2:24 PM 28.4 °F 19.7 °F 21.2 °F 74% 30.41 in 3.0 mi NE 9.2 mph - 0.00 in Snow Light Snow
2:32 PM 28.4 °F 21.2 °F 21.2 °F 74% 30.42 in 2.0 mi NE 6.9 mph - 0.00 in Snow Light Snow
2:48 PM 28.4 °F 19.1 °F 21.2 °F 74% 30.42 in 1.5 mi NE 10.4 mph - 0.00 in Snow Light Snow
2:49 PM 28.4 °F 19.1 °F 21.2 °F 74% 30.42 in 1.2 mi NNE 10.4 mph - 0.00 in Snow Light Snow
2:53 PM 28.0 °F 18.6 °F 21.9 °F 78% 30.42 in 1.0 mi NNE 10.4 mph - 0.00 in Snow Light Snow
3:12 PM 28.4 °F 19.1 °F 21.2 °F 74% 30.42 in 1.8 mi NE 10.4 mph - 0.01 in Snow Light Snow
3:37 PM 28.4 °F 19.1 °F 21.2 °F 74% 30.41 in 2.0 mi NE 10.4 mph - 0.01 in Snow Light Snow
3:53 PM 28.0 °F 18.1 °F 21.9 °F 78% 30.40 in 2.5 mi NE 11.5 mph - 0.01 in Snow Light Snow
4:40 PM 28.4 °F 22.2 °F 21.2 °F 74% 30.39 in 4.0 mi NE 5.8 mph - 0.00 in Snow Light Snow
4:53 PM 28.0 °F 19.3 °F 21.9 °F 78% 30.38 in 4.0 mi NE 9.2 mph - 0.00 in Snow Light Snow
5:19 PM 28.4 °F 19.1 °F 21.2 °F 74% 30.37 in 9.0 mi NE 10.4 mph - 0.00 in Snow Light Snow
5:53 PM 28.9 °F 20.4 °F 21.0 °F 72% 30.35 in 6.0 mi NE 9.2 mph - 0.00 in Snow Light Snow
6:53 PM 30.0 °F 23.2 °F 19.9 °F 66% 30.34 in 10.0 mi NE 6.9 mph - 0.00 in   Overcast
7:53 PM 30.0 °F 21.1 °F 19.9 °F 66% 30.31 in 10.0 mi NE 10.4 mph - N/A   Overcast
8:53 PM 28.9 °F 25.2 °F 23.0 °F 78% 30.28 in 10.0 mi ENE 3.5 mph - N/A   Overcast
9:53 PM 30.0 °F - 24.1 °F 79% 30.26 in 10.0 mi Calm Calm - N/A   Overcast
10:53 PM 30.0 °F - 25.0 °F 82% 30.25 in 10.0 mi Calm Calm - N/A   Overcast
11:28 PM 28.4 °F - 24.8 °F 86% 30.24 in 2.5 mi Calm Calm - 0.00 in Snow Light Snow
11:49 PM 28.4 °F 22.2 °F 24.8 °F 86% 30.23 in 2.5 mi NE 5.8 mph - 0.01 in Snow Light Snow
11:53 PM 28.9 °F 23.9 °F 24.1 °F 82% 30.24 in 2.5 mi NNE 4.6 mph - 0.01 in Snow Light Snow